Weather History for Wharton, TX

Change the Weather History Date:

Monday, May 27, 2013

  Actual Average (KPSX) Record (KPSX)
Temperature  
Mean Temperature 78 °F -  
Max Temperature 89 °F 86 °F 94 °F (1973)
Min Temperature 68 °F 70 °F 59 °F (1961)
Cooling Degree Days 14    
Growing Degree Days 28 (Base 50)    
Moisture  
Dew Point 69 °F    
Average Humidity 76    
Maximum Humidity 97    
Minimum Humidity 48    
Precipitation  
Precipitation 0.00 in - - ()
Sea Level Pressure  
Sea Level Pressure 29.99 in    
Wind  
Wind Speed 8 mph (SE)    
Max Wind Speed 22 mph    
Max Gust Speed 29 mph    
Visibility 9 miles    
Events      
Averages and records for this station are not official NWS values.
T = Trace of Precipitation, MM = Missing Value Source: NWS Daily Summary

Daily Weather History Graph

Daily Weather History Graph

Search for Another Location

Airport:

Trip Planner

Search our weather history database for the weather conditions in past years. The results will help you decide how hot, cold, wet, or windy it might be!

Date:

Astronomy

May. 27, 2013 Rise Set
Actual Time 6:26 AM CDT 8:16 PM CDT
Civil Twilight 6:00 AM CDT 8:43 PM CDT
Nautical Twilight 5:28 AM CDT 9:15 PM CDT
Astronomical Twilight 4:54 AM CDT 9:49 PM CDT
Moon 11:02 PM CDT (5/27) 9:02 AM CDT (5/27)
Length of Visible Light 14h 43m
Length of Day
13h 50m
Waning Gibbous, 91% of the Moon is Illuminated
May 27
Waning Gibbous
May 31
Last Quarter
Jun 8
New
Jun 16
First Quarter
Jun 23
Full

Hourly Weather History & Observations

Time (CDT) Temp. Heat Index Dew Point Humidity Pressure Visibility Wind Dir Wind Speed Gust Speed Precip Events Conditions
12:15 AM 71.8 °F - 69.3 °F 92% 30.05 in 10.0 mi ESE 3.5 mph - N/A   Clear
12:35 AM 71.4 °F - 69.1 °F 92% 30.05 in 10.0 mi East 4.6 mph - N/A   Scattered Clouds
12:55 AM 71.4 °F - 69.3 °F 93% 30.05 in 10.0 mi Calm Calm - N/A   Scattered Clouds
1:15 AM 71.6 °F - 69.6 °F 93% 30.04 in 10.0 mi ESE 4.6 mph - N/A   Scattered Clouds
1:35 AM 71.6 °F - 69.6 °F 93% 30.03 in 10.0 mi ESE 5.8 mph - N/A   Clear
1:55 AM 71.1 °F - 69.4 °F 95% 30.03 in 7.0 mi ESE 4.6 mph - N/A   Clear
2:15 AM 70.7 °F - 69.1 °F 95% 30.03 in 7.0 mi SE 3.5 mph - N/A   Clear
2:35 AM 70.7 °F - 69.1 °F 95% 30.02 in 7.0 mi Calm Calm - N/A   Scattered Clouds
2:55 AM 69.8 °F - 68.4 °F 95% 30.02 in 7.0 mi Calm Calm - N/A   Mostly Cloudy
3:15 AM 70.0 °F - 68.9 °F 96% 30.02 in 7.0 mi Calm Calm - N/A   Scattered Clouds
3:35 AM 69.8 °F - 68.4 °F 95% 30.01 in 7.0 mi ESE 4.6 mph - N/A   Clear
3:55 AM 69.8 °F - 68.5 °F 96% 30.01 in 7.0 mi East 3.5 mph - N/A   Clear
4:15 AM 69.3 °F - 68.0 °F 96% 30.01 in 7.0 mi ESE 3.5 mph - N/A   Clear
4:35 AM 69.1 °F - 68.0 °F 96% 30.00 in 7.0 mi East 3.5 mph - N/A   Clear
4:55 AM 68.9 °F - 67.6 °F 96% 30.00 in 5.0 mi ESE 3.5 mph - N/A   Clear
5:15 AM 69.3 °F - 68.2 °F 96% 30.00 in 7.0 mi ESE 5.8 mph - N/A   Clear
5:35 AM 69.4 °F - 68.4 °F 96% 30.00 in 7.0 mi ESE 4.6 mph - N/A   Clear
5:55 AM 69.1 °F - 68.0 °F 96% 30.01 in 5.0 mi Calm Calm - N/A   Clear
6:15 AM 68.9 °F - 68.0 °F 97% 30.01 in 5.0 mi ESE 3.5 mph - N/A   Clear
6:35 AM 68.4 °F - 67.3 °F 96% 30.01 in 2.0 mi SE 5.8 mph - N/A   Clear
6:55 AM 69.1 °F - 68.2 °F 97% 30.01 in 4.0 mi ESE 3.5 mph - N/A   Clear
7:15 AM 69.8 °F - 68.7 °F 96% 30.01 in 4.0 mi SE 4.6 mph - N/A   Clear
7:35 AM 71.1 °F - 70.2 °F 97% 30.01 in 7.0 mi SE 4.6 mph - N/A   Clear
7:55 AM 73.2 °F - 71.8 °F 95% 30.01 in 10.0 mi SE 6.9 mph - N/A   Clear
8:15 AM 75.9 °F - 72.3 °F 89% 30.01 in 10.0 mi SE 10.4 mph - N/A   Clear
8:35 AM 77.7 °F - 72.1 °F 83% 30.02 in 10.0 mi SSE 9.2 mph - N/A   Clear
8:55 AM 79.7 °F - 72.3 °F 78% 30.03 in 10.0 mi SSE 11.5 mph 17.3 mph N/A   Scattered Clouds
9:15 AM 80.2 °F 84.0 °F 71.6 °F 75% 30.03 in 10.0 mi SSE 12.7 mph 18.4 mph N/A   Mostly Cloudy
9:35 AM 81.0 °F 85.1 °F 71.6 °F 73% 30.03 in 10.0 mi SSE 13.8 mph - N/A   Mostly Cloudy
9:55 AM 82.0 °F 86.3 °F 71.1 °F 69% 30.03 in 10.0 mi SSE 13.8 mph 18.4 mph N/A   Scattered Clouds
10:15 AM 83.8 °F 88.3 °F 70.7 °F 64% 30.02 in 10.0 mi SE 16.1 mph 23.0 mph N/A   Scattered Clouds
10:35 AM 82.9 °F 87.5 °F 71.1 °F 67% 30.02 in 10.0 mi SE 16.1 mph - N/A   Scattered Clouds
10:55 AM 84.6 °F 89.4 °F 70.7 °F 63% 30.02 in 10.0 mi SSE 13.8 mph 19.6 mph N/A   Scattered Clouds
11:15 AM 85.3 °F 89.8 °F 69.8 °F 60% 30.02 in 10.0 mi SSE 13.8 mph 23.0 mph N/A   Scattered Clouds
11:35 AM 85.8 °F 89.7 °F 68.9 °F 57% 30.02 in 10.0 mi South 16.1 mph 23.0 mph N/A   Scattered Clouds
11:55 AM 87.3 °F 92.0 °F 69.8 °F 56% 30.02 in 10.0 mi SSE 18.4 mph 21.9 mph N/A   Scattered Clouds
12:15 PM 87.1 °F 92.0 °F 70.2 °F 57% 30.02 in 10.0 mi SSE 17.3 mph 24.2 mph N/A   Scattered Clouds
12:35 PM 88.0 °F 92.5 °F 69.6 °F 54% 30.01 in 10.0 mi SSE 18.4 mph 25.3 mph N/A   Scattered Clouds
12:55 PM 88.5 °F 92.7 °F 68.9 °F 52% 30.01 in 10.0 mi SSE 20.7 mph 25.3 mph N/A   Scattered Clouds
1:15 PM 89.4 °F 93.5 °F 68.7 °F 50% 30.00 in 10.0 mi South 21.9 mph 27.6 mph N/A   Scattered Clouds
1:35 PM 88.9 °F 93.0 °F 68.4 °F 51% 30.00 in 10.0 mi South 19.6 mph 26.5 mph N/A   Clear
1:55 PM 88.5 °F 91.9 °F 67.6 °F 50% 30.00 in 10.0 mi South 17.3 mph 25.3 mph N/A   Scattered Clouds
2:15 PM 87.4 °F 89.8 °F 66.4 °F 49% 29.99 in 10.0 mi South 19.6 mph 25.3 mph N/A   Scattered Clouds
2:35 PM 88.9 °F 92.2 °F 67.6 °F 49% 29.98 in 10.0 mi South 18.4 mph 24.2 mph N/A   Scattered Clouds
2:55 PM 89.1 °F 93.3 °F 68.5 °F 51% 29.98 in 10.0 mi South 19.6 mph 25.3 mph N/A   Scattered Clouds
3:15 PM 88.0 °F 91.8 °F 68.4 °F 52% 29.97 in 10.0 mi South 20.7 mph 28.8 mph N/A   Scattered Clouds
3:35 PM 88.3 °F 92.4 °F 68.7 °F 52% 29.96 in 10.0 mi SSE 18.4 mph 23.0 mph N/A   Mostly Cloudy
3:55 PM 88.3 °F 92.0 °F 68.0 °F 51% 29.96 in 10.0 mi SSE 16.1 mph 24.2 mph N/A   Mostly Cloudy
4:15 PM 87.1 °F 90.6 °F 68.0 °F 53% 29.96 in 10.0 mi SSE 17.3 mph 23.0 mph N/A   Scattered Clouds
4:35 PM 86.4 °F 89.4 °F 67.6 °F 53% 29.96 in 10.0 mi SSE 16.1 mph - N/A   Mostly Cloudy
4:55 PM 86.2 °F 89.7 °F 68.2 °F 55% 29.95 in 10.0 mi SSE 17.3 mph 23.0 mph N/A   Mostly Cloudy
5:15 PM 86.7 °F 89.6 °F 67.1 °F 52% 29.94 in 10.0 mi SSE 17.3 mph 21.9 mph N/A   Mostly Cloudy
5:35 PM 86.4 °F 89.7 °F 67.8 °F 54% 29.94 in 10.0 mi SE 18.4 mph - N/A   Mostly Cloudy
5:55 PM 85.5 °F 87.4 °F 65.7 °F 51% 29.94 in 10.0 mi SSE 17.3 mph 20.7 mph N/A   Scattered Clouds
6:15 PM 85.3 °F 86.4 °F 63.3 °F 48% 29.93 in 10.0 mi South 17.3 mph 23.0 mph N/A   Clear
6:35 PM 84.4 °F 86.6 °F 66.2 °F 54% 29.93 in 10.0 mi SSE 13.8 mph 19.6 mph N/A   Clear
6:55 PM 82.9 °F 85.4 °F 66.9 °F 58% 29.93 in 10.0 mi SSE 13.8 mph - N/A   Scattered Clouds
7:15 PM 81.7 °F 84.3 °F 67.6 °F 62% 29.92 in 10.0 mi SSE 15.0 mph - N/A   Clear
7:35 PM 80.8 °F 83.5 °F 68.2 °F 65% 29.92 in 10.0 mi SE 15.0 mph - N/A   Clear
7:55 PM 79.5 °F - 68.4 °F 69% 29.93 in 10.0 mi SSE 12.7 mph - N/A   Clear
8:15 PM 78.3 °F - 68.9 °F 73% 29.93 in 10.0 mi SE 11.5 mph - N/A   Clear
8:35 PM 77.2 °F - 69.3 °F 76% 29.93 in 10.0 mi SE 11.5 mph - N/A   Clear
8:55 PM 75.6 °F - 69.3 °F 81% 29.94 in 10.0 mi SE 8.1 mph - N/A   Clear
9:15 PM 74.3 °F - 69.3 °F 84% 29.95 in 10.0 mi SE 6.9 mph - N/A   Clear
9:35 PM 73.8 °F - 69.8 °F 87% 29.95 in 10.0 mi SE 6.9 mph - N/A   Clear
9:55 PM 72.9 °F - 69.4 °F 89% 29.95 in 10.0 mi SE 6.9 mph - N/A   Clear
10:15 PM 72.9 °F - 69.8 °F 90% 29.96 in 10.0 mi SE 6.9 mph - N/A   Clear
10:35 PM 73.2 °F - 70.0 °F 90% 29.96 in 10.0 mi SE 6.9 mph - N/A   Clear
10:55 PM 73.0 °F - 70.2 °F 91% 29.97 in 10.0 mi SE 6.9 mph - N/A   Clear
11:15 PM 72.9 °F - 70.2 °F 91% 29.97 in 10.0 mi SE 8.1 mph - N/A   Clear
11:35 PM 72.7 °F - 70.2 °F 92% 29.96 in 10.0 mi SE 8.1 mph - N/A   Clear
11:55 PM 72.5 °F - 70.2 °F 92% 29.96 in 10.0 mi SE 10.4 mph - N/A   Clear